Temperature
20 19 19 20 25 28 27 27 28 27 27 26 25 26 26 25 25 23 21 20 19 19 19 19 19 19 19 19 19 19 19 19 19 18 18 18 18 18 18 18 18 18 18 18 18 18 18 18 18
19 19 20 24 28 28 27 28 27 27 26 25 25 25 25 24 22 21 20 19 19 19 19 19 19 19 19 19 19 19 19 19 19 18 18 18 18 18 18 18 18 18 18 18 18 18 18 18 18
20 20 23 28 28 28 27 28 27 27 26 26 25 25 24 23 22 21 20 19 19 19 19 19 19 19 19 19 19 19 19 19 19 18 18 18 18 18 18 18 18 18 18 18 18 18 18 18 18
20 22 25 28 28 28 28 28 28 28 26 26 26 25 23 21 21 21 20 20 20 19 19 19 19 19 19 19 19 19 19 19 19 18 18 18 18 18 18 18 18 18 18 18 18 18 18 18 18
21 26 29 29 28 28 28 28 27 28 27 26 26 25 23 21 20 20 20 20 20 19 19 19 19 19 19 19 19 19 19 19 18 18 18 18 18 18 18 18 18 18 18 18 18 18 18 18 18
25 28 29 28 28 28 28 28 28 28 27 26 26 25 22 21 20 20 20 20 20 20 19 19 19 19 19 19 19 19 19 19 18 18 18 18 18 18 18 18 18 18 18 18 18 18 18 18 18
27 29 29 29 28 28 28 28 28 28 27 26 25 25 23 21 20 20 20 20 20 19 19 19 19 19 19 19 19 19 19 19 18 18 18 18 18 18 18 18 18 18 18 18 18 18 18 18 18
26 29 29 29 29 28 28 28 27 27 26 25 25 25 23 21 20 20 20 20 19 19 19 19 19 19 18 19 19 19 19 18 18 18 18 18 18 18 18 18 18 18 18 18 18 18 18 18 18
26 30 29 29 29 29 28 28 27 26 26 25 24 24 23 21 21 21 20 20 19 19 19 19 19 19 19 18 18 18 18 18 18 18 18 18 17 17 18 18 18 18 18 18 18 18 18 18 18
29 30 29 29 29 29 28 28 27 27 26 25 24 23 22 21 21 21 21 20 20 19 19 19 19 19 19 18 18 18 18 18 18 18 18 18 18 18 18 18 18 18 18 18 18 18 18 18 18
30 29 29 29 28 28 28 28 27 28 27 26 24 23 22 21 21 21 21 21 20 20 19 19 19 19 19 18 18 18 18 18 18 18 18 18 18 18 18 18 18 18 18 18 18 18 18 18 18
29 29 29 29 28 28 28 28 27 27 27 25 24 23 22 22 22 21 21 21 20 19 19 19 19 19 18 18 18 18 18 18 18 18 18 18 18 18 18 18 18 18 18 18 18 18 18 18 17
29 29 28 28 28 28 27 27 27 26 25 24 24 23 22 22 22 21 21 20 20 19 19 19 19 19 18 18 18 18 18 18 18 18 17 17 17 18 18 18 18 18 18 18 18 18 18 18 18
29 29 28 28 28 28 28 27 27 26 25 24 23 23 22 22 21 21 20 20 20 19 19 19 18 18 18 18 18 18 18 18 18 18 18 17 17 17 17 17 18 18 18 18 18 18 18 18 18
28 29 29 29 29 28 29 28 28 26 25 24 23 23 22 22 21 21 20 20 19 19 19 18 18 18 18 18 18 18 18 18 18 18 17 17 17 17 17 17 18 18 18 18 18 18 18 18 18
30 30 29 29 29 28 29 28 27 25 25 25 24 23 22 21 21 21 20 20 19 19 19 19 18 18 18 18 18 18 18 18 18 17 17 17 17 17 17 17 17 17 18 18 18 18 18 18 18
30 30 30 29 29 29 29 28 28 26 25 25 24 23 23 22 21 21 20 20 19 19 19 19 18 18 18 18 18 18 17 17 17 17 17 17 17 17 17 17 17 17 17 18 18 18 18 18 18
30 30 30 29 29 29 29 29 28 26 26 26 25 24 23 22 21 21 20 20 19 19 19 19 18 18 18 18 18 18 17 17 17 17 17 17 17 17 17 17 17 17 17 17 17 17 17 17 18
30 30 30 30 29 29 29 29 28 27 26 26 25 24 23 23 22 21 20 20 19 19 19 19 19 18 18 18 18 18 18 17 17 17 17 17 17 17 17 17 17 17 17 17 17 17 17 17 17
30 30 30 29 29 29 29 29 29 28 27 26 25 24 24 23 22 21 20 20 19 19 19 19 18 18 18 18 18 18 18 17 17 17 17 17 17 17 17 17 17 17 17 17 17 17 17 17 17
30 30 30 29 29 29 29 29 29 28 27 26 25 25 24 23 22 21 20 20 19 19 19 19 18 18 18 18 18 17 17 17 17 17 17 17 17 17 17 17 17 17 17 17 17 17 17 17 17
30 31 30 29 29 30 29 29 29 29 28 27 26 25 24 23 22 21 21 20 20 19 19 19 19 18 18 18 17 17 17 17 17 17 17 17 17 17 17 17 17 17 17 17 17 17 17 17 17
30 30 30 29 29 30 30 29 30 29 28 28 27 26 25 23 23 22 21 20 20 19 19 19 18 18 18 18 17 17 17 17 17 17 16 16 16 16 17 17 17 16 16 16 17 17 17 17 17
30 30 29 30 30 29 29 29 29 30 29 28 27 26 24 23 22 21 21 20 19 19 19 19 18 18 18 18 17 17 17 17 17 16 17 17 16 16 17 16 17 16 16 16 16 16 16 16 17
30 30 29 29 29 29 29 29 29 29 28 28 27 26 25 23 23 22 20 20 19 19 19 19 18 18 18 18 17 17 17 17 17 17 17 16 16 17 17 17 17 16 16 16 16 16 16 16 16
30 30 29 29 29 30 29 29 29 28 27 26 26 25 24 23 23 22 20 20 19 19 19 18 18 18 18 17 17 17 17 17 17 17 16 16 16 16 16 16 16 16 16 16 16 16 16 16 16
30 30 31 30 30 30 30 29 29 28 27 26 25 25 24 23 22 22 21 20 19 19 19 18 18 18 17 17 17 17 17 17 16 16 16 16 16 16 16 16 16 16 16 16 16 16 16 16 16
30 30 30 30 28 28 29 29 29 27 27 26 25 25 24 23 22 21 21 20 19 19 18 18 18 18 18 17 17 17 17 17 16 16 16 16 16 16 16 16 16 16 16 16 16 16 16 16 16
29 29 29 29 29 29 29 29 28 27 27 26 26 24 23 23 22 21 21 20 19 19 18 18 17 17 17 17 17 17 17 16 16 16 16 16 16 16 16 16 16 16 16 16 16 16 15 15 15
29 29 29 28 28 28 29 28 28 27 27 26 25 24 23 22 22 21 20 20 19 19 18 18 17 17 17 17 17 17 17 16 16 16 16 16 16 16 15 15 15 15 15 15 15 15 15 15 15
Wind_Speed
10 8 5 4 3 4 9 8 7 7 7 8 7 7 7 8 7 7 5 6 7 7 8 11 10 10 11 11 11 11 11 11 11 10 10 10 10 9 9 9 9 9 9 9 8 9 9 10 9
7 5 4 3 1 7 10 8 9 8 7 7 7 8 9 9 8 7 6 6 7 8 9 10 11 10 10 10 11 11 11 10 10 9 9 9 9 8 8 8 8 8 8 8 8 9 9 10 9
6 5 3 0 6 9 9 9 9 8 7 6 6 7 6 7 7 6 7 7 8 9 9 11 10 10 10 10 10 10 10 9 9 9 9 9 9 8 8 8 7 7 7 7 8 8 8 9 9
4 4 3 4 10 10 8 8 7 8 8 6 6 7 7 7 4 7 8 8 8 9 9 11 9 9 9 9 9 9 9 9 9 9 8 8 8 7 8 8 7 6 7 6 7 8 8 7 7
4 3 3 8 11 9 8 7 6 6 6 7 7 9 8 7 8 10 9 7 8 8 9 11 9 9 9 9 9 9 8 9 8 8 8 7 7 7 7 7 7 7 7 6 6 6 6 6 7
3 1 4 9 10 8 7 6 6 7 8 7 7 9 7 7 9 9 8 7 8 8 8 10 9 9 9 9 9 8 8 8 8 7 8 8 7 6 7 7 6 6 6 5 4 4 4 5 5
2 3 6 8 9 8 7 5 6 7 7 6 5 7 7 8 8 9 8 8 7 7 7 7 8 10 10 9 8 8 8 7 7 7 7 7 6 6 6 5 5 5 4 4 3 2 2 4 4
3 1 6 7 7 8 6 6 6 6 7 6 4 5 7 8 8 9 8 8 7 6 6 6 7 8 8 9 9 8 7 6 6 6 5 4 5 5 5 4 5 4 3 3 2 1 1 3 4
2 2 7 7 6 6 5 6 6 5 7 6 5 7 9 11 10 9 8 8 7 6 5 5 5 6 6 7 9 7 7 6 4 5 4 3 2 3 4 4 5 3 2 2 2 1 0 3 6
0 5 8 7 6 6 5 5 5 5 7 7 8 8 11 11 10 9 8 8 7 6 5 4 4 5 5 5 5 4 4 5 3 3 3 2 2 1 1 4 2 1 1 2 1 1 3 5 3
3 5 6 6 6 4 5 5 4 5 5 5 7 10 11 10 9 8 7 7 6 6 5 4 3 3 3 3 3 3 3 3 4 4 3 3 2 2 1 1 2 2 2 1 2 3 1 1 1
3 5 5 4 4 4 4 5 5 4 5 6 7 10 11 10 8 7 7 6 5 5 5 4 3 3 2 2 2 2 2 2 3 3 2 3 2 2 2 1 2 1 1 1 1 1 2 2 2
3 3 5 4 4 5 5 5 5 5 5 6 8 10 10 9 8 6 6 5 5 5 4 4 3 3 2 2 1 2 1 1 3 3 3 2 2 1 2 1 1 1 1 1 1 1 1 0 1
3 2 3 3 4 4 5 4 3 4 6 8 9 9 8 7 7 7 6 5 5 5 5 4 4 4 3 3 2 2 2 2 2 2 2 1 1 1 1 1 1 1 1 1 1 0 0 0 0
3 3 4 3 3 3 3 4 4 5 7 8 8 7 7 7 6 6 6 5 5 5 5 4 4 4 3 3 3 2 2 2 2 2 2 1 1 1 0 1 0 1 1 0 1 1 1 1 1
4 4 2 3 2 2 4 2 5 6 7 7 7 7 7 7 6 5 5 5 5 5 5 4 4 4 4 3 2 2 2 2 2 2 2 2 0 1 1 1 1 1 1 1 1 1 1 1 1
5 2 1 2 2 2 3 1 4 6 6 6 6 7 7 7 6 5 5 5 5 5 5 5 4 4 4 3 2 2 3 2 2 2 2 2 2 2 2 1 1 2 1 1 2 1 1 1 1
2 3 2 1 2 3 3 2 4 5 5 6 6 7 7 7 7 7 6 6 6 6 5 5 5 4 4 3 3 2 2 3 3 2 1 2 2 2 3 3 2 3 2 1 1 2 2 2 2
5 5 3 1 1 3 4 3 3 5 6 6 6 6 6 6 7 7 7 6 6 6 6 5 5 4 3 3 3 3 3 3 2 3 2 3 3 3 3 3 2 3 2 2 2 2 2 3 2
6 6 4 2 2 4 3 3 3 4 5 5 5 6 6 6 7 7 7 6 7 7 6 6 5 5 4 3 3 2 2 3 2 2 2 3 3 4 3 3 4 3 2 3 3 3 3 2 2
7 6 4 3 3 5 4 4 5 5 5 5 5 6 6 7 7 7 7 7 7 7 7 6 6 5 5 4 3 3 3 3 3 3 3 3 3 3 4 4 4 3 4 3 3 4 4 3 3
6 4 5 6 7 4 5 4 4 5 5 5 6 7 7 7 7 7 7 7 7 7 7 6 6 6 5 5 4 4 4 3 3 3 2 3 3 4 4 4 4 4 4 3 4 3 4 4 4
4 2 4 6 7 7 6 6 2 5 4 4 5 5 6 7 7 7 7 6 6 6 6 6 6 6 5 5 4 4 4 4 3 3 3 4 3 4 4 4 4 4 4 4 4 4 4 4 5
4 5 6 8 8 8 6 7 3 2 2 2 3 3 5 6 6 6 6 5 5 6 6 6 6 6 6 5 5 5 5 4 4 4 4 4 3 3 3 4 4 4 4 4 4 4 5 4 5
8 8 6 7 7 6 3 6 2 2 0 0 1 1 3 5 6 6 7 6 6 5 6 6 6 6 6 6 6 6 6 6 6 5 5 5 4 3 3 3 3 4 4 4 4 4 5 5 5
9 10 8 7 7 4 5 5 1 3 2 1 1 2 2 4 5 6 7 7 6 6 6 5 5 5 5 5 5 5 5 5 5 5 5 5 4 3 2 3 4 4 5 5 4 5 5 4 5
8 9 9 10 10 9 5 3 3 3 2 1 2 2 2 3 3 4 5 6 6 6 6 5 5 4 4 5 5 5 5 5 5 4 5 4 3 3 3 4 4 4 4 4 5 4 4 4 4
7 6 7 9 8 9 7 7 4 3 2 2 2 2 2 3 3 3 4 5 5 6 6 5 5 4 4 3 4 3 4 5 5 4 3 3 3 3 3 3 3 4 4 4 4 4 3 4 4
6 7 7 8 9 10 9 3 2 1 2 2 2 2 2 2 2 3 3 4 4 5 5 5 5 4 4 3 3 3 4 4 4 4 4 4 3 3 3 3 3 3 3 3 3 4 3 4 4
7 7 8 8 8 9 10 4 4 1 2 2 2 2 2 2 2 2 2 3 3 4 5 5 5 5 4 3 3 3 4 4 4 4 4 4 4 4 3 3 3 3 3 3 3 3 3 3 4
Wind_Direction
184 183 203 231 221 92 68 63 63 67 64 62 67 66 63 48 41 75 93 97 96 106 111 116 108 110 115 116 117 120 121 122 122 122 124 126 126 131 134 136 141 142 140 141 142 142 141 139 138
173 182 225 240 58 79 69 63 67 66 78 90 81 74 72 67 64 94 108 106 111 110 113 112 111 112 114 115 117 117 117 120 119 118 122 126 126 128 131 133 138 140 139 141 145 146 146 145 145
182 221 261 25 60 61 67 66 75 82 86 90 85 63 57 66 80 96 106 119 117 110 108 106 113 113 113 113 115 115 114 116 115 115 116 124 126 125 123 124 129 134 137 141 147 149 150 151 150
211 224 229 79 72 63 66 73 83 93 86 75 88 82 74 59 76 100 113 121 114 111 111 107 109 113 114 114 116 117 116 114 113 112 113 114 114 116 117 121 118 123 133 138 148 151 153 155 158
241 255 109 83 74 73 72 71 80 82 84 84 89 91 83 73 93 108 116 117 115 113 113 111 109 112 114 114 115 117 116 112 112 112 111 106 102 102 107 111 105 105 124 132 144 152 164 166 167
248 239 78 79 82 80 80 78 82 84 90 92 96 95 88 102 111 115 116 116 114 113 112 113 115 117 117 114 114 114 112 111 113 112 108 103 99 94 95 103 106 105 112 122 132 149 161 165 167
321 56 72 79 87 83 78 79 79 87 88 85 96 97 108 115 119 122 117 114 113 113 116 120 125 128 125 116 113 113 109 109 109 108 108 108 106 99 96 96 99 105 111 114 113 131 160 166 178
313 53 79 75 81 82 90 91 81 78 84 90 94 103 120 134 135 129 121 117 112 110 114 119 121 116 121 121 115 108 106 107 108 107 105 115 127 126 122 128 101 93 103 106 105 104 145 179 185
269 71 69 62 71 87 100 103 92 94 102 99 83 86 117 136 141 137 131 127 121 119 121 121 121 121 117 111 115 120 119 115 125 120 131 171 145 125 143 91 92 94 97 93 83 77 125 218 187
321 58 58 48 60 90 95 101 118 125 113 108 107 107 125 141 147 146 140 138 135 132 129 123 126 127 126 117 114 114 111 107 93 84 107 113 96 84 83 105 119 137 144 167 156 225 218 226 188
55 59 61 60 65 84 100 105 116 123 106 115 133 137 142 147 153 152 146 143 140 137 134 135 133 128 126 121 115 106 100 98 98 90 86 81 79 78 71 90 148 172 199 201 163 208 197 125 94
79 58 53 65 73 90 99 108 103 82 83 109 133 142 148 153 157 159 152 145 141 140 140 138 140 135 116 107 116 120 108 106 100 93 84 85 72 59 55 36 30 9 73 62 36 48 66 65 79
100 72 61 69 89 100 103 104 102 92 100 114 129 141 148 153 154 155 151 151 153 156 155 148 147 142 141 137 142 121 118 113 107 95 91 86 96 63 61 53 21 352 26 140 109 60 76 78 166
83 87 95 106 110 115 110 108 125 105 124 125 132 143 147 150 152 154 159 164 168 170 171 163 164 158 158 160 157 151 149 133 123 118 102 89 94 78 41 64 357 357 354 21 21 99 151 229 342
147 145 134 132 138 135 146 122 120 134 141 139 141 145 148 152 157 161 166 172 173 174 174 168 171 164 166 174 180 170 164 156 157 143 135 141 144 125 298 358 299 16 23 44 237 199 210 213 206
208 211 172 142 169 177 241 116 113 141 156 153 152 154 158 162 167 167 172 173 171 175 173 178 178 168 168 173 193 182 176 174 175 172 166 169 209 250 270 292 321 311 277 262 255 244 230 211 242
218 249 217 168 192 225 245 149 138 162 170 167 168 168 170 169 175 175 180 180 177 180 179 179 184 180 177 170 181 192 178 187 190 184 191 185 215 239 259 277 310 278 278 281 286 296 275 251 248
276 289 276 237 183 228 243 208 160 176 188 183 179 178 179 182 184 182 185 183 180 179 181 184 185 180 182 178 183 195 195 195 195 195 197 221 231 245 267 259 265 279 278 287 307 305 287 270 258
282 284 285 277 181 243 245 232 193 186 197 194 189 186 186 190 183 181 184 182 180 178 179 184 190 182 184 187 197 199 203 212 209 206 204 224 246 256 265 282 269 272 273 279 271 261 252 257 249
252 261 244 209 212 257 246 239 197 191 203 204 198 193 194 190 182 183 187 185 185 181 183 185 190 189 195 194 206 212 215 222 219 231 210 235 245 254 252 263 267 269 265 260 261 259 267 265 252
246 253 253 251 240 224 247 215 184 185 195 203 205 201 200 199 193 187 191 193 191 189 190 191 192 190 197 200 203 197 201 225 221 221 221 237 247 252 267 264 270 274 267 260 261 260 258 261 260
253 244 239 232 243 242 252 273 195 189 193 204 206 205 207 201 198 194 194 196 197 195 190 190 188 190 193 200 210 210 218 232 240 243 236 229 234 248 253 257 263 268 269 269 265 267 268 264 264
266 230 225 240 258 264 242 269 210 184 208 206 200 206 208 204 199 195 195 193 196 192 188 186 185 189 190 198 204 217 229 238 242 243 237 247 242 249 256 255 259 261 263 264 273 281 275 265 272
197 207 217 229 246 253 252 261 261 192 224 202 174 188 199 200 193 191 188 180 183 184 185 182 182 190 191 197 205 216 227 240 248 244 241 240 240 242 249 257 264 264 267 263 261 264 261 267 275
220 238 247 240 237 248 201 249 268 79 77 250 188 169 183 184 186 184 180 175 179 183 185 183 182 192 196 201 209 215 226 232 236 243 237 249 250 246 248 260 259 265 264 265 263 260 271 263 264
229 249 266 278 278 264 197 243 160 110 97 95 108 116 129 155 171 177 179 179 184 187 186 183 183 191 200 208 217 222 227 235 238 237 249 244 253 256 259 257 256 260 263 264 259 259 261 265 267
238 245 268 274 273 273 250 230 204 164 176 153 112 112 124 143 158 174 179 183 187 188 189 188 184 192 205 213 215 220 227 239 243 238 240 247 252 251 248 253 257 263 264 263 260 261 266 265 262
259 257 252 257 267 270 256 245 246 182 191 165 142 125 121 133 149 163 176 182 187 187 184 183 183 191 199 210 219 210 220 226 235 241 243 253 257 264 261 261 260 262 261 259 259 257 259 263 266
219 230 248 257 266 273 274 270 59 160 181 193 172 147 137 143 145 149 159 174 185 182 177 179 182 188 191 203 218 222 216 220 223 229 238 241 247 251 253 254 257 261 265 265 265 268 262 261 265
242 243 241 253 255 262 276 276 96 130 176 176 162 145 142 144 139 130 138 160 174 177 178 181 187 195 201 200 202 215 221 221 225 227 232 233 237 244 245 247 249 257 262 261 259 261 264 265 265
Height
1501 1502 1503 1504 1498 1494 1497 1495 1492 1494 1496 1500 1501 1500 1501 1504 1506 1515 1517 1515 1515 1515 1515 1515 1515 1516 1517 1518 1518 1519 1520 1521 1522 1523 1523 1524 1525 1525 1526 1527 1527 1528 1529 1530 1530 1531 1532 1533 1534
1504 1503 1505 1502 1493 1499 1501 1495 1496 1497 1501 1502 1503 1504 1504 1509 1512 1515 1516 1517 1517 1517 1517 1517 1517 1518 1519 1520 1520 1521 1522 1523 1524 1524 1525 1526 1526 1527 1527 1528 1528 1529 1529 1530 1530 1531 1532 1533 1535
1504 1504 1504 1495 1494 1500 1502 1496 1498 1500 1502 1503 1505 1507 1509 1513 1516 1517 1518 1518 1519 1519 1520 1519 1519 1520 1521 1522 1522 1523 1524 1525 1525 1526 1527 1527 1528 1528 1528 1528 1529 1528 1529 1529 1530 1531 1532 1533 1535
1506 1506 1502 1495 1498 1497 1498 1498 1499 1501 1504 1505 1506 1509 1514 1517 1518 1519 1519 1520 1521 1521 1522 1520 1521 1522 1522 1523 1524 1525 1526 1526 1527 1527 1528 1529 1529 1530 1530 1530 1529 1529 1528 1529 1530 1531 1533 1534 1535
1506 1503 1495 1496 1498 1499 1499 1500 1501 1501 1504 1507 1508 1511 1516 1519 1519 1520 1521 1522 1523 1523 1524 1523 1523 1523 1524 1525 1526 1527 1528 1528 1529 1529 1530 1530 1531 1531 1531 1531 1530 1529 1529 1530 1531 1532 1533 1535 1536
1506 1498 1496 1500 1500 1499 1500 1502 1502 1503 1506 1508 1510 1512 1518 1521 1521 1522 1523 1524 1525 1525 1525 1524 1524 1524 1525 1527 1528 1528 1529 1530 1530 1530 1531 1531 1532 1532 1532 1532 1532 1532 1532 1532 1533 1533 1534 1535 1536
1504 1495 1497 1497 1500 1501 1502 1503 1503 1504 1507 1510 1512 1513 1519 1522 1523 1524 1524 1525 1526 1527 1527 1527 1527 1526 1527 1528 1529 1530 1531 1531 1532 1532 1533 1533 1533 1534 1534 1534 1534 1534 1534 1534 1534 1534 1535 1535 1536
1504 1497 1496 1497 1500 1502 1503 1505 1507 1507 1510 1513 1514 1514 1519 1523 1524 1525 1526 1526 1527 1528 1529 1529 1529 1529 1530 1531 1531 1532 1532 1533 1533 1534 1534 1535 1535 1535 1535 1535 1535 1535 1535 1535 1535 1535 1535 1536 1537
1504 1498 1499 1498 1500 1502 1503 1505 1509 1511 1512 1514 1516 1517 1520 1522 1524 1526 1527 1528 1528 1529 1530 1531 1532 1531 1532 1533 1533 1534 1534 1534 1535 1536 1536 1536 1537 1538 1537 1537 1536 1536 1536 1536 1536 1535 1535 1536 1537
1501 1499 1501 1500 1500 1502 1504 1506 1508 1510 1512 1515 1518 1520 1521 1523 1525 1526 1527 1528 1529 1530 1531 1531 1533 1533 1534 1535 1535 1535 1536 1536 1537 1537 1537 1538 1538 1538 1538 1538 1537 1537 1537 1537 1537 1536 1536 1536 1538
1501 1500 1501 1502 1504 1505 1505 1507 1509 1508 1510 1514 1517 1520 1522 1524 1525 1527 1528 1529 1530 1531 1531 1532 1533 1534 1535 1535 1536 1537 1537 1537 1538 1537 1538 1538 1539 1539 1539 1539 1539 1539 1538 1538 1538 1538 1538 1538 1539
1503 1503 1504 1504 1506 1506 1506 1508 1509 1511 1513 1516 1518 1520 1522 1524 1526 1527 1529 1530 1531 1532 1532 1533 1533 1534 1534 1535 1536 1537 1538 1538 1539 1538 1539 1539 1539 1539 1539 1539 1540 1540 1539 1539 1539 1539 1539 1539 1539
1504 1505 1506 1506 1507 1507 1508 1509 1511 1513 1516 1517 1519 1521 1522 1524 1526 1528 1529 1530 1531 1532 1532 1533 1533 1533 1534 1534 1536 1537 1537 1539 1539 1539 1539 1539 1540 1540 1540 1540 1540 1540 1540 1540 1539 1539 1539 1539 1540
1505 1506 1506 1506 1507 1507 1508 1510 1512 1515 1517 1518 1519 1521 1523 1524 1526 1528 1529 1530 1531 1531 1532 1532 1533 1533 1533 1534 1535 1536 1537 1538 1539 1539 1539 1539 1540 1540 1540 1540 1540 1540 1540 1540 1540 1540 1540 1540 1540
1506 1505 1505 1505 1506 1507 1507 1509 1511 1514 1517 1518 1519 1521 1523 1524 1526 1527 1528 1529 1530 1531 1531 1532 1533 1533 1533 1535 1536 1536 1537 1538 1538 1539 1539 1539 1540 1539 1540 1540 1540 1540 1540 1539 1539 1540 1540 1539 1540
1503 1502 1504 1505 1505 1506 1507 1511 1511 1514 1516 1517 1519 1521 1522 1524 1525 1526 1528 1529 1529 1530 1531 1531 1532 1533 1533 1534 1535 1536 1537 1537 1538 1538 1539 1538 1539 1539 1539 1540 1539 1539 1539 1539 1539 1539 1539 1539 1539
1500 1502 1504 1504 1503 1504 1504 1507 1510 1513 1514 1515 1518 1519 1521 1523 1524 1525 1527 1528 1529 1529 1530 1530 1531 1532 1533 1533 1534 1535 1536 1536 1537 1537 1538 1538 1538 1538 1538 1539 1538 1538 1538 1538 1538 1538 1538 1538 1538
1502 1500 1502 1503 1501 1503 1503 1505 1507 1511 1512 1513 1515 1518 1520 1521 1523 1524 1525 1526 1527 1528 1529 1529 1530 1531 1532 1533 1533 1534 1535 1535 1536 1536 1536 1536 1537 1537 1537 1538 1537 1537 1537 1537 1537 1536 1536 1536 1537
1498 1500 1502 1501 1500 1502 1503 1503 1504 1507 1509 1511 1513 1515 1517 1519 1522 1523 1524 1525 1526 1526 1527 1528 1529 1529 1530 1531 1532 1533 1534 1534 1535 1535 1535 1535 1535 1536 1536 1536 1536 1536 1536 1535 1535 1535 1535 1535 1535
1499 1501 1500 1500 1500 1501 1501 1501 1500 1504 1506 1509 1511 1513 1515 1517 1519 1521 1522 1523 1524 1524 1525 1526 1527 1528 1529 1529 1530 1531 1532 1533 1533 1534 1533 1534 1534 1534 1535 1534 1534 1534 1534 1533 1533 1533 1534 1534 1534
1497 1498 1498 1501 1500 1499 1500 1501 1499 1500 1504 1507 1509 1511 1513 1514 1516 1519 1520 1521 1522 1523 1524 1525 1525 1526 1527 1528 1529 1530 1531 1531 1532 1532 1532 1532 1532 1532 1532 1532 1532 1532 1532 1532 1531 1531 1532 1532 1532
1497 1493 1496 1499 1501 1498 1500 1504 1497 1496 1499 1502 1505 1508 1509 1512 1514 1516 1517 1519 1520 1521 1522 1523 1523 1524 1525 1526 1528 1528 1529 1530 1530 1530 1531 1530 1530 1530 1530 1530 1530 1530 1530 1530 1530 1530 1530 1530 1530
1493 1492 1494 1496 1498 1498 1496 1501 1494 1492 1496 1498 1502 1505 1507 1510 1512 1514 1515 1516 1518 1519 1520 1521 1522 1522 1523 1524 1525 1526 1527 1528 1528 1528 1528 1528 1529 1528 1528 1528 1528 1528 1528 1528 1527 1527 1527 1527 1528
1493 1494 1495 1494 1494 1506 1498 1501 1498 1490 1493 1495 1498 1502 1505 1508 1510 1512 1513 1514 1516 1517 1518 1519 1519 1520 1521 1522 1522 1523 1524 1525 1525 1526 1526 1526 1527 1527 1526 1526 1526 1526 1526 1525 1525 1525 1525 1525 1525
1492 1497 1503 1505 1504 1501 1494 1498 1496 1490 1492 1495 1498 1501 1504 1506 1508 1510 1511 1512 1513 1514 1516 1516 1517 1518 1519 1519 1520 1520 1521 1522 1522 1523 1524 1524 1525 1525 1524 1524 1523 1523 1523 1523 1522 1522 1522 1522 1522
1490 1491 1504 1512 1506 1494 1494 1495 1490 1490 1494 1497 1499 1501 1503 1504 1506 1508 1509 1510 1511 1512 1513 1514 1515 1516 1516 1517 1517 1518 1518 1520 1521 1521 1521 1522 1522 1522 1521 1521 1521 1520 1520 1520 1520 1520 1520 1519 1519
1488 1487 1483 1490 1493 1496 1490 1488 1488 1490 1494 1496 1498 1500 1502 1503 1504 1506 1507 1508 1509 1510 1511 1512 1513 1513 1514 1515 1515 1515 1516 1517 1518 1518 1519 1519 1519 1519 1519 1518 1518 1518 1517 1517 1517 1517 1516 1516 1516
1485 1483 1486 1490 1504 1505 1494 1490 1489 1490 1492 1495 1497 1499 1501 1502 1503 1505 1506 1507 1508 1509 1510 1510 1511 1511 1512 1512 1513 1514 1513 1514 1515 1516 1516 1516 1516 1516 1516 1516 1516 1515 1515 1514 1514 1514 1513 1513 1513
1488 1488 1488 1487 1488 1499 1500 1492 1483 1488 1491 1493 1496 1499 1500 1501 1502 1503 1504 1505 1506 1507 1508 1508 1509 1510 1510 1510 1510 1511 1511 1512 1512 1512 1513 1513 1513 1513 1513 1513 1513 1513 1512 1512 1511 1511 1511 1510 1510
1482 1484 1486 1493 1494 1491 1493 1493 1483 1487 1489 1492 1495 1498 1500 1501 1502 1503 1503 1504 1505 1505 1506 1507 1507 1508 1508 1508 1508 1509 1509 1510 1510 1510 1510 1510 1510 1511 1511 1510 1510 1510 1510 1509 1509 1508 1508 1508 1507